{"data":{"norad_id":39481,"intl_designator":"2013-075A","name":"TKSAT-1 (TUPAC KATARI)","alt_names":[],"object_type":"PAYLOAD","status":"ACTIVE","operator":null,"country":"BOL","launch_date":"2013-12-20","launch_site_code":"XICLF","launch_vehicle":null,"mission":null,"orbit_class":"UNKNOWN","rcs_meters":40.9678,"size_class":null,"mass_kg":null,"dimensions":null,"purposes":["comms"],"wikipedia_slug":null,"has_3d_model":false,"image_url":null,"decayed_at":null,"tle_current":{"epoch":"2026-05-25T03:26:38.623776Z","epoch_age_seconds":76730,"freshness":"FRESH","line1":"1 39481U 13075A   26145.14350259 -.00000197  00000+0  00000+0 0  9994","line2":"2 39481   0.0248  88.4453 0002648 319.9677 158.7842  1.00272727 45377","mean_motion":1.00272727,"eccentricity":0.0002648,"inclination_deg":0.0248,"raan_deg":88.4453,"arg_perigee_deg":319.9677,"mean_anomaly_deg":158.7842,"bstar":0,"rev_number":4537,"period_min":1436.0834127908,"perigee_km":35775.165735366,"apogee_km":35797.496037559,"semimajor_km":42164.467886462,"source":"CELESTRAK","updated_at":"2026-05-25T13:38:13.947163Z"}}}